Address 0x5f46f464870b398b34b0ab82baef7b4b90f18dcd 1

 
Txn Hash Method
Block
From
To
Value [Txn Fee]
0xb04f7aa983be2258afd307f0f0595ebdf046d87cea8db5dfc04752b5d67c80a8Getdividends216257142021-11-21 8:56:116 days 8 hrs ago0x5f46f464870b398b34b0ab82baef7b4b90f18dcdOUT 0x42039d4e63bc5ba1b219adf9f2eee446005adfdb0 MATIC0.00913131
0xcce068a775b40fe799b838ae55c9fb50ff12586f993c7a840d588e684a41b24aGetdividends215979232021-11-20 15:45:427 days 1 hr ago0x5f46f464870b398b34b0ab82baef7b4b90f18dcdOUT 0x42039d4e63bc5ba1b219adf9f2eee446005adfdb0 MATIC0.03659385
0x43f50b33d399cb4a1665b07e32af9fb8a67de660a5483289cd47c357a43c1240Buy New Level211627852021-11-09 9:00:5618 days 8 hrs ago0x5f46f464870b398b34b0ab82baef7b4b90f18dcdOUT 0x42039d4e63bc5ba1b219adf9f2eee446005adfdb0 MATIC0.00677058
0xe06cc87766b91345249ae0181423089dcf313c16d8694d34678c5df840a866d2Approve211627722021-11-09 9:00:3018 days 8 hrs ago0x5f46f464870b398b34b0ab82baef7b4b90f18dcdOUT 0x7dadd73f6ae9e4ce0ba50d8818ebd8a7ec578b110 MATIC0.00155136
0x164c382b4da53eb57dacacb64ffe3085a702a905f2283692ad0353c7ffffdddbBuy New Level211627552021-11-09 8:59:5618 days 8 hrs ago0x5f46f464870b398b34b0ab82baef7b4b90f18dcdOUT 0x42039d4e63bc5ba1b219adf9f2eee446005adfdb0 MATIC0.00677058
0x3dadfb6a5207ac97fa39fd1ee637d22fc370eb30a737fc64d20e1cdc64722a94Approve211627492021-11-09 8:59:4018 days 8 hrs ago0x5f46f464870b398b34b0ab82baef7b4b90f18dcdOUT 0x7dadd73f6ae9e4ce0ba50d8818ebd8a7ec578b110 MATIC0.00155136
0x2e6e2855cb286f3e7544af5f1c7236a3a7812a3bd1e236f62452fef10f52c982Buy New Level211627132021-11-09 8:58:2818 days 8 hrs ago0x5f46f464870b398b34b0ab82baef7b4b90f18dcdOUT 0x42039d4e63bc5ba1b219adf9f2eee446005adfdb0 MATIC0.00677058
0xd6c07b2024612c9401c236ede3f121f8989683b445044d8bc8a911cff797eb4fApprove211627042021-11-09 8:58:1018 days 8 hrs ago0x5f46f464870b398b34b0ab82baef7b4b90f18dcdOUT 0x7dadd73f6ae9e4ce0ba50d8818ebd8a7ec578b110 MATIC0.00155136
0x882c57e32194b6f795d02f45c27bfafd3b36aa8f7f63d108fb7e897069a1f6b1Buy New Level211626892021-11-09 8:57:4018 days 8 hrs ago0x5f46f464870b398b34b0ab82baef7b4b90f18dcdOUT 0x42039d4e63bc5ba1b219adf9f2eee446005adfdb0 MATIC0.00677058
0x23d852b5a8d56568898208c381bd3a6d903af87c552a8451a19c27885f34d690Approve211626822021-11-09 8:57:2218 days 8 hrs ago0x5f46f464870b398b34b0ab82baef7b4b90f18dcdOUT 0x7dadd73f6ae9e4ce0ba50d8818ebd8a7ec578b110 MATIC0.00155136
0xde79f73f3c551087e4ee558bcdb6e8aafd14d028bda83cb8657b99a33e3ff9e9Buy New Level211626672021-11-09 8:56:5218 days 8 hrs ago0x5f46f464870b398b34b0ab82baef7b4b90f18dcdOUT 0x42039d4e63bc5ba1b219adf9f2eee446005adfdb0 MATIC0.00677058
0x59635100ef90759fd2430d3a69ea88d707e198edc7e7f29b8a285eeedf38d091Approve211626592021-11-09 8:56:3618 days 8 hrs ago0x5f46f464870b398b34b0ab82baef7b4b90f18dcdOUT 0x7dadd73f6ae9e4ce0ba50d8818ebd8a7ec578b110 MATIC0.00155172
0xa5c9f92968b19ca9f31e5ddd46a899180c4531b383ee06a12f97c5c1da8eb3edBuy New Level211626452021-11-09 8:56:0818 days 8 hrs ago0x5f46f464870b398b34b0ab82baef7b4b90f18dcdOUT 0x42039d4e63bc5ba1b219adf9f2eee446005adfdb0 MATIC0.00677058
0x1fab82b0cdbfdadfe25ff362ceb0970a57da9a9985133f1580c01c9794df81c2Approve211626332021-11-09 8:55:4418 days 8 hrs ago0x5f46f464870b398b34b0ab82baef7b4b90f18dcdOUT 0x7dadd73f6ae9e4ce0ba50d8818ebd8a7ec578b110 MATIC0.00155172
0xfbf9210de09bb00f662f5f5efed3d209140eebd177ce1860845631befff31ea1Buy New Level211626122021-11-09 8:54:5818 days 8 hrs ago0x5f46f464870b398b34b0ab82baef7b4b90f18dcdOUT 0x42039d4e63bc5ba1b219adf9f2eee446005adfdb0 MATIC0.00677058
0xbbb79ae27d3b06fc872d2746dad299c8a55786e66022aa349f8009b1c5e8a80aApprove211626022021-11-09 8:54:3818 days 8 hrs ago0x5f46f464870b398b34b0ab82baef7b4b90f18dcdOUT 0x7dadd73f6ae9e4ce0ba50d8818ebd8a7ec578b110 MATIC0.00155172
0xc5efeb5453d3116e59b0a56654d6d9613995cd4ad0e79e05f13caabd6dbc1964Buy New Level211625852021-11-09 8:54:0418 days 8 hrs ago0x5f46f464870b398b34b0ab82baef7b4b90f18dcdOUT 0x42039d4e63bc5ba1b219adf9f2eee446005adfdb0 MATIC0.00686235
0xa42cf4a7c66d1f9766794ae0d81cc7a0868abb146611ec87cc89f80212e9c0f3Approve211625752021-11-09 8:53:4418 days 8 hrs ago0x5f46f464870b398b34b0ab82baef7b4b90f18dcdOUT 0x7dadd73f6ae9e4ce0ba50d8818ebd8a7ec578b110 MATIC0.00155172
0x0a40eb2d24c9d619797404476c288aae740641e6a76ba2cb639d159fb2eaa74fBuy New Level211625612021-11-09 8:53:1618 days 8 hrs ago0x5f46f464870b398b34b0ab82baef7b4b90f18dcdOUT 0x42039d4e63bc5ba1b219adf9f2eee446005adfdb0 MATIC0.00686235
0x313cb31c5b57a5b169c2526cbd51bc9719bf1cd901f344e7189e42e4d78d98c4Approve211625512021-11-09 8:52:5218 days 8 hrs ago0x5f46f464870b398b34b0ab82baef7b4b90f18dcdOUT 0x7dadd73f6ae9e4ce0ba50d8818ebd8a7ec578b110 MATIC0.00155136
0x5a268241500a1e8f1ffc2e3a489ebdd24e762ba661637e651e498a8b244dd245Buy New Level211625372021-11-09 8:52:2418 days 8 hrs ago0x5f46f464870b398b34b0ab82baef7b4b90f18dcdOUT 0x42039d4e63bc5ba1b219adf9f2eee446005adfdb0 MATIC0.00686235
0x021c204ce26673ca586fd6a1980de50682b71622e46a2e5d48f3ae4cf214ffe8Approve211625282021-11-09 8:52:0618 days 8 hrs ago0x5f46f464870b398b34b0ab82baef7b4b90f18dcdOUT 0x7dadd73f6ae9e4ce0ba50d8818ebd8a7ec578b110 MATIC0.00155136
0xe5ac5cd112c4b349452d050a5fdf8bac2624ebcf0266712618eb6f5d7ba8fc4dBuy New Level211625142021-11-09 8:51:3818 days 8 hrs ago0x5f46f464870b398b34b0ab82baef7b4b90f18dcdOUT 0x42039d4e63bc5ba1b219adf9f2eee446005adfdb0 MATIC0.00574425
0xd6020d4225deafceb2081145e19d6b23178b81c25a589d4aed47103edc53e011Approve211625062021-11-09 8:51:2218 days 8 hrs ago0x5f46f464870b398b34b0ab82baef7b4b90f18dcdOUT 0x7dadd73f6ae9e4ce0ba50d8818ebd8a7ec578b110 MATIC0.00155136
0x1f389d25cd76e138de6178b09cdf4daad28191a1bc734085ba6ccdab7ffb1616Buy New Level211624932021-11-09 8:50:5218 days 8 hrs ago0x5f46f464870b398b34b0ab82baef7b4b90f18dcdOUT 0x42039d4e63bc5ba1b219adf9f2eee446005adfdb0 MATIC0.00505473
[ Download CSV Export 
Parent Txn Hash Block From To Value
Loading

Contract Name:
0 MATIC

Compiler Version
0

Optimization Enabled:
0 MATIC

Other Settings:
-NA-
Block Transaction Gas Used Reward
Age Block Fee Address BC Fee Address Voting Power Jailed Incoming
Block Uncle Number Difficulty Gas Used Reward
Loading
Loading
Make sure to use the "Vote Down" button for any spammy posts, and the "Vote Up" for interesting conversations.